Hourly Data Report for October 06, 2015

All times are specified in Local Standard Time (LST). Add 1 hour to adjust for Daylight Saving Time where and when it is observed.

PETAWAWA AWOS 2
ONTARIO

45°57'00.000" N
77°19'00.000" W
130.10 m
6106396
71625
YWA

Download Data

Hourly Data (October 2015)
Hourly Data Report for October 6, 2015
Temp Definition
°C
Dew Point Temp Definition
°C
Rel Hum Definition
%
Wind Dir Definition
10's deg

Wind Spd Definition
km/h
Visibility Definition
km
Stn Press Definition
kPa
Hmdx Definition


Wind Chill Definition


Weather Definition


TIME
00:00 11.1 9.0 87 28 4 14.5 100.48     LegendNANA
01:00 11.1 8.8 86 28 4 14.5 100.44     LegendNANA
02:00 10.4 9.2 92   0 14.5 100.43     LegendNANA
03:00 10.3 9.1 92   0 14.5 100.39     LegendNANA
04:00 10.2 9.0 92   0 14.5 100.38     LegendNANA
05:00 10.1 9.2 94 26 4 14.5 100.39     LegendNANA
06:00 10.3 9.1 92 27 4 14.5 100.36     Rain
07:00 10.8 9.2 90   0 14.5 100.36     Rain
08:00 10.9 9.5 91 26 4 14.5 100.33     LegendNANA
09:00 11.2 9.8 91   0 9.7 100.33     LegendNANA
10:00 11.4 10.0 91 33 4 14.5 100.32     LegendNANA
11:00 12.3 10.2 87   0 14.5 100.28     LegendNANA
12:00 12.8 10.6 86 13 7 14.5 100.25     LegendNANA
13:00 14.3 10.1 76 9 4 14.5 100.16     LegendNANA
14:00 16.1 10.0 67 3 9 14.5 100.05     LegendNANA
15:00 17.3 8.1 55 32 15 14.5 100.01     LegendNANA
16:00 16.8 7.2 53 29 9 14.5 99.99     LegendNANA
17:00 15.1 7.2 59 29 6 14.5 99.97     LegendNANA
18:00 14.4 7.8 64 29 4 14.5 99.98     LegendNANA
19:00 12.3 9.3 82 26 4 14.5 99.96     LegendNANA
20:00 12.7 8.5 76 28 4 14.5 99.95     LegendNANA
21:00 12.9 8.6 75 28 6 14.5 99.94     LegendNANA
22:00 12.7 8.4 75 26 7 14.5 99.92     LegendNANA
23:00 11.5 8.0 79   0 14.5 99.92     LegendNANA

Notes on Data Quality.

Legend

  • E = Estimated
  • M = Missing
  • NA = Not Available
  • ‡ = Partner data that is not subject to review by the National Climate Archives
Date modified: